CAPE
0 0 0 0 0 0 0 2 1 31 95 84 63 102 114 193 79 41 303 314 514 463 579 737 921 1094 1093 1048 977 998 794 711 636 578 544 532 438 353 410 371 186 103 88 63 78 60 15 1 0
0 0 0 0 0 0 0 1 56 42 115 114 63 22 126 395 411 311 369 710 474 498 671 790 989 1076 1140 1108 1060 886 778 719 637 581 546 394 362 353 252 158 134 81 20 7 0 0 0 0 0
0 0 0 0 0 0 0 14 102 66 50 51 31 0 58 422 489 286 473 649 486 567 696 862 935 1001 1092 1052 1013 966 951 851 724 592 384 361 332 190 125 86 83 24 3 0 0 0 0 0 0
0 0 0 0 0 0 0 41 50 53 53 68 17 0 0 204 410 440 676 578 517 634 709 767 790 870 1029 1069 1024 958 956 902 730 578 377 323 198 112 54 43 23 4 0 0 0 0 0 0 0
0 0 0 0 0 0 0 94 67 26 14 10 0 0 20 460 539 610 639 571 509 726 569 611 685 843 1016 963 920 980 899 786 696 657 584 271 148 80 31 14 0 0 0 0 0 0 0 0 0
0 0 0 0 0 34 87 108 70 25 25 9 59 66 176 671 553 769 939 1108 764 1012 580 606 705 841 926 977 950 834 737 685 715 742 646 365 297 194 31 0 0 0 0 0 0 0 0 0 0
7 3 19 50 38 59 93 81 38 5 0 12 121 299 504 515 439 688 987 827 812 591 573 568 641 685 735 706 598 566 528 533 574 577 499 439 251 147 59 27 12 0 0 21 76 64 33 58 11
0 1 7 32 38 33 42 17 0 3 42 51 207 327 524 520 635 653 593 592 530 492 381 393 416 415 337 310 318 328 348 340 376 383 256 118 49 15 19 0 15 80 118 130 216 176 131 105 64
0 0 22 0 0 1 15 21 11 68 74 16 24 285 462 554 523 504 494 348 250 146 113 95 66 16 0 10 136 308 360 299 285 224 102 20 1 0 0 0 76 164 256 208 173 199 64 27 0
0 0 2 0 31 30 24 0 0 116 69 25 54 168 478 424 523 319 134 34 3 0 0 0 0 0 0 0 3 0 33 67 90 80 55 56 71 45 21 10 15 30 0 0 0 0 0 0 0
0 0 0 0 0 11 49 38 40 152 66 48 23 278 202 275 118 3 0 0 0 0 0 0 0 0 0 0 0 0 11 52 159 149 132 116 110 122 77 59 0 0 0 0 0 0 0 0 0
0 0 0 0 0 7 35 18 147 110 33 55 139 133 41 16 0 0 0 0 5 27 9 0 0 0 0 0 3 28 123 142 232 239 252 208 110 2 0 0 0 0 0 0 0 0 0 0 0
0 0 0 0 0 0 2 79 24 0 37 22 133 73 0 0 0 0 0 12 44 107 101 54 12 0 0 6 63 98 161 259 300 402 293 61 6 0 0 0 0 0 0 0 0 0 0 0 0
0 0 0 0 0 0 0 0 0 0 83 23 77 37 1 9 0 0 0 72 74 214 282 266 88 25 3 39 96 127 169 240 348 493 257 25 1 0 0 0 0 1 0 0 0 0 0 0 0
0 0 0 0 0 0 0 0 0 12 75 25 14 58 73 67 20 0 49 149 155 243 335 409 222 135 87 61 89 131 232 283 425 444 229 43 5 0 0 0 0 12 1 0 0 0 0 0 0
0 0 0 0 0 0 0 0 0 93 101 40 47 70 100 77 110 49 82 166 207 223 355 315 276 82 35 21 42 108 173 129 108 229 180 46 10 1 0 12 23 14 13 6 1 0 0 0 0
0 0 0 0 0 0 0 0 0 108 131 93 128 108 122 114 115 148 212 262 269 250 241 280 84 51 36 41 41 22 89 122 46 46 37 31 23 10 24 26 17 9 5 2 0 0 0 0 0
0 0 0 0 0 0 0 0 0 8 147 121 147 174 184 178 75 172 151 195 173 242 245 259 84 84 100 50 46 67 29 32 37 36 34 29 14 16 12 11 1 0 0 0 0 0 0 0 0
0 0 0 0 0 0 0 0 0 0 120 133 177 183 197 213 195 168 189 211 343 443 428 293 195 100 50 38 82 79 56 27 2 0 0 4 13 3 0 0 0 0 0 0 0 0 0 0 0
0 0 0 0 0 0 0 0 0 0 0 35 51 122 199 221 242 326 572 659 640 445 254 131 59 28 0 0 0 0 0 0 0 0 0 0 0 0 0 0 0 0 0 0 0 0 0 0 0
0 0 0 0 0 0 0 0 0 0 0 0 0 0 173 345 426 438 421 335 279 94 6 1 0 0 0 0 0 0 0 0 0 0 0 0 0 0 0 0 0 0 0 0 0 0 0 0 0
0 0 0 0 0 0 0 0 0 0 0 0 0 25 83 55 40 37 27 2 0 0 0 0 0 0 0 0 0 0 0 0 0 0 0 0 0 0 0 0 0 0 0 0 0 0 0 0 0
0 0 0 0 0 0 0 0 0 0 0 0 0 0 0 4 15 0 0 0 0 0 0 0 0 0 0 0 0 0 0 0 0 0 0 0 0 0 0 0 0 0 0 0 0 0 0 0 0
0 0 0 0 0 0 0 0 0 0 0 0 0 0 0 0 0 0 0 0 0 3 0 0 0 0 0 0 0 0 0 0 0 0 0 0 0 0 0 0 0 0 0 0 0 0 0 0 0
0 0 0 0 0 0 0 0 0 0 0 0 0 0 0 0 0 0 0 0 0 0 0 0 0 0 0 0 0 0 0 0 0 0 0 0 0 0 0 0 0 0 0 0 0 0 1 0 0
0 0 0 0 0 0 0 0 0 0 0 0 0 0 0 0 0 0 0 5 12 1 0 0 0 0 0 0 0 0 0 0 0 0 0 0 0 0 0 0 0 0 0 0 1 2 0 0 0
0 0 0 0 0 0 0 0 0 0 0 0 0 0 0 1 3 0 0 0 0 0 0 0 2 0 0 0 0 0 0 0 0 0 0 0 0 0 0 0 1 19 18 12 12 2 39 7 0
0 0 0 0 0 0 0 0 0 0 0 0 0 0 5 8 4 0 0 0 0 0 0 8 3 0 0 0 0 0 0 0 0 0 0 0 0 0 1 16 25 38 6 26 21 11 0 0 0
0 0 0 0 0 0 0 0 0 0 0 0 0 0 0 0 0 2 9 9 11 11 10 2 0 0 0 0 0 0 0 0 0 0 0 0 0 0 0 4 16 26 19 13 8 0 0 0 0
0 0 0 0 0 0 0 0 0 0 0 0 0 0 0 2 18 16 16 21 22 18 12 7 3 0 0 0 0 0 0 0 0 0 0 0 0 0 0 0 11 28 31 3 1 0 0 0 0
CIN
-0 -0 -0 -0 -0 -0 -1 -3 -4 -74 -63 -73 -18 -30 -99 -59 -11 -25 -59 -47 -23 -8 -0 -0 -0 -0 -0 -0 -0 -0 -26 -29 -44 -55 -58 -57 -67 -76 -63 -70 -127 -160 -155 -153 -150 -155 -165 -146 -0
-0 -0 -0 -0 -0 -0 -0 -6 -2 -38 -28 -47 -16 -0 -71 -1 -8 -43 -67 -3 -20 -7 -0 -0 -0 -2 -0 -0 -0 -12 -18 -21 -36 -47 -56 -94 -94 -93 -114 -144 -157 -165 -207 -208 -0 -0 -0 -0 -0
-0 -0 -0 -0 -0 -0 -0 -27 -35 -24 -23 -12 -19 -0 -62 -14 -0 -48 -30 -7 -10 -0 -0 -0 -0 -1 -0 -4 -8 -2 -0 -0 -12 -44 -89 -92 -102 -145 -182 -192 -168 -226 -78 -0 -0 -0 -0 -0 -0
-0 -0 -0 -0 -0 -0 -0 -23 -8 -0 -0 -1 -6 -0 -1 -65 -22 -28 -8 -3 -13 -0 -0 -0 -6 -17 -9 -3 -0 -0 -0 -0 -19 -42 -92 -104 -142 -176 -209 -209 -253 -325 -0 -0 -0 -0 -0 -0 -0
-0 -0 -0 -0 -7 -0 -0 -10 -15 -20 -47 -6 -10 -0 -151 -54 -32 -30 -12 -2 -17 -0 -5 -18 -32 -19 -4 -3 -0 -0 -2 -19 -29 -39 -50 -121 -159 -194 -229 -261 -0 -0 -0 -0 -0 -0 -0 -0 -0
-0 -0 -0 -0 -0 -100 -140 -39 -19 -31 -31 -99 -180 -148 -48 -22 -47 -11 -0 -0 -0 -0 -35 -46 -39 -16 -9 -0 -5 -30 -49 -59 -55 -43 -54 -122 -143 -163 -235 -0 -0 -0 -0 -0 -0 -0 -0 -0 -0
-9 -2 -1 -0 -9 -45 -38 -26 -37 -12 -1 -50 -130 -105 -42 -26 -31 -23 -1 -0 -2 -38 -69 -78 -60 -60 -56 -67 -103 -102 -104 -97 -85 -83 -97 -118 -150 -178 -193 -198 -178 -0 -0 -145 -96 -100 -110 -86 -101
-0 -4 -3 -2 -4 -22 -4 -107 -3 -56 -57 -128 -120 -122 -40 -18 -23 -11 -4 -20 -38 -60 -116 -147 -168 -163 -180 -191 -182 -170 -159 -160 -144 -138 -171 -201 -225 -235 -214 -0 -93 -115 -87 -77 -55 -63 -79 -88 -133
-0 -0 -2 -1 -0 -1 -14 -4 -18 -26 -32 -103 -145 -168 -88 -62 -29 -23 -25 -68 -123 -204 -276 -283 -290 -286 -56 -233 -270 -200 -172 -195 -195 -199 -223 -248 -28 -0 -0 -0 -145 -90 -57 -62 -70 -68 -92 -76 -0
-0 -0 -2 -0 -47 -17 -17 -0 -0 -28 -46 -76 -85 -173 -83 -121 -54 -130 -224 -303 -109 -0 -0 -0 -0 -0 -0 -0 -49 -0 -319 -205 -134 -140 -159 -147 -121 -123 -134 -139 -169 -59 -0 -0 -0 -0 -0 -0 -0
-0 -0 -0 -0 -0 -1 -34 -52 -71 -50 -55 -67 -203 -156 -199 -174 -279 -54 -0 -0 -0 -0 -0 -0 -0 -0 -0 -0 -0 -0 -142 -156 -127 -118 -110 -118 -109 -85 -83 -73 -0 -0 -0 -0 -0 -0 -0 -0 -0
-0 -0 -0 -0 -0 -8 -45 -84 -27 -60 -106 -68 -138 -169 -334 -361 -0 -0 -0 -0 -188 -115 -112 -0 -0 -0 -0 -9 -13 -126 -120 -113 -96 -98 -97 -96 -107 -33 -0 -0 -0 -0 -0 -0 -0 -0 -0 -0 -0
-0 -0 -0 -4 -0 -0 -44 -45 -107 -0 -145 -121 -162 -185 -0 -0 -0 -0 -0 -133 -100 -80 -58 -57 -74 -0 -0 -45 -90 -94 -87 -61 -49 -27 -58 -125 -132 -0 -0 -0 -0 -0 -0 -0 -0 -0 -0 -0 -0
-0 -0 -0 -0 -0 -0 -0 -0 -0 -0 -136 -127 -201 -203 -43 -162 -0 -0 -0 -58 -65 -69 -31 -17 -20 -36 -77 -58 -58 -38 -35 -28 -18 -9 -41 -86 -59 -0 -0 -0 -0 -11 -0 -0 -0 -0 -0 -0 -0
-0 -0 -0 -0 -0 -0 -0 -0 -0 -52 -136 -134 -144 -121 -113 -133 -160 -0 -82 -32 -23 -54 -27 -9 -4 -65 -75 -69 -55 -34 -33 -23 -12 -15 -29 -56 -66 -0 -0 -0 -0 -9 -18 -0 -0 -0 -0 -0 -0
-0 -0 -0 -0 -0 -0 -0 -0 -0 -206 -137 -104 -80 -96 -107 -124 -82 -105 -90 -53 -34 -30 -29 -19 -9 -23 -7 -12 -38 -65 -63 -49 -61 -37 -29 -37 -46 -6 -0 -13 -7 -8 -4 -7 -2 -0 -0 -0 -0
-0 -0 -0 -0 -0 -0 -0 -0 -0 -219 -151 -96 -86 -88 -86 -78 -53 -54 -39 -30 -28 -25 -5 -30 -23 -3 -14 -65 -20 -16 -39 -32 -28 -41 -21 -5 -3 -11 -3 -10 -8 -1 -3 -2 -0 -0 -0 -0 -0
-0 -0 -0 -0 -0 -0 -0 -0 -0 -74 -165 -132 -110 -93 -78 -66 -70 -30 -23 -19 -71 -253 -124 -54 -32 -84 -21 -21 -16 -29 -32 -13 -10 -2 -1 -0 -1 -1 -3 -0 -0 -0 -0 -0 -0 -0 -0 -0 -0
-0 -0 -0 -0 -0 -0 -0 -0 -0 -0 -208 -144 -118 -102 -88 -81 -73 -60 -298 -261 -224 -159 -103 -53 -21 -112 -27 -52 -20 -11 -13 -12 -9 -0 -0 -2 -1 -0 -0 -0 -0 -0 -0 -0 -0 -0 -0 -0 -0
-0 -0 -0 -0 -0 -0 -0 -0 -0 -0 -0 -103 -127 -111 -97 -88 -115 -221 -163 -127 -116 -118 -65 -61 -66 -13 -0 -0 -0 -0 -0 -0 -0 -0 -0 -0 -0 -0 -0 -0 -0 -0 -0 -0 -0 -0 -0 -0 -0
-0 -0 -0 -0 -0 -0 -0 -0 -0 -0 -0 -0 -0 -0 -218 -172 -146 -119 -85 -59 -63 -40 -37 -26 -0 -0 -0 -0 -0 -0 -0 -0 -0 -0 -0 -0 -0 -0 -0 -0 -0 -0 -0 -0 -0 -0 -0 -0 -0
-0 -0 -0 -0 -0 -0 -0 -0 -0 -0 -0 -0 -0 -225 -162 -144 -113 -73 -46 -13 -0 -0 -0 -0 -0 -0 -0 -0 -0 -0 -0 -0 -0 -0 -0 -0 -0 -0 -0 -0 -0 -0 -0 -0 -0 -0 -0 -0 -0
-0 -0 -0 -0 -0 -0 -0 -0 -0 -0 -0 -0 -0 -60 -0 -107 -64 -0 -0 -0 -0 -0 -0 -0 -0 -0 -0 -0 -0 -0 -0 -0 -0 -0 -0 -0 -0 -0 -0 -0 -0 -0 -0 -0 -0 -0 -0 -0 -0
-0 -0 -0 -0 -0 -0 -0 -0 -0 -0 -0 -0 -0 -0 -0 -0 -0 -0 -0 -0 -0 -12 -0 -0 -0 -0 -0 -0 -0 -0 -0 -0 -0 -0 -0 -0 -0 -0 -0 -0 -0 -0 -0 -0 -0 -0 -0 -0 -0
-0 -0 -0 -0 -0 -0 -0 -0 -0 -0 -0 -0 -0 -0 -0 -0 -0 -0 -0 -0 -0 -2 -0 -0 -0 -0 -0 -0 -0 -0 -0 -0 -0 -0 -0 -0 -0 -0 -0 -0 -0 -0 -0 -0 -0 -0 -0 -0 -0
-0 -0 -0 -0 -0 -0 -0 -0 -0 -0 -0 -0 -0 -0 -0 -0 -0 -3 -0 -29 -23 -3 -0 -0 -0 -0 -0 -0 -0 -0 -0 -0 -0 -0 -0 -0 -0 -0 -0 -0 -0 -0 -0 -0 -0 -1 -0 -0 -0
-0 -0 -0 -0 -0 -0 -0 -0 -0 -0 -0 -0 -0 -0 -0 -0 -7 -4 -0 -0 -0 -0 -0 -1 -1 -1 -0 -0 -0 -0 -0 -0 -0 -0 -0 -0 -0 -0 -0 -0 -4 -0 -0 -2 -1 -8 -16 -9 -0
-0 -0 -0 -0 -0 -0 -0 -0 -0 -0 -0 -0 -0 -0 -3 -4 -22 -0 -0 -0 -0 -0 -3 -0 -1 -0 -0 -0 -0 -0 -0 -0 -0 -0 -0 -0 -0 -0 -11 -1 -3 -1 -12 -1 -0 -4 -0 -0 -0
-0 -0 -0 -0 -0 -0 -0 -0 -0 -0 -0 -0 -0 -0 -0 -0 -0 -6 -17 -18 -10 -7 -4 -8 -0 -0 -0 -0 -0 -0 -0 -0 -0 -0 -0 -0 -0 -0 -0 -1 -2 -4 -2 -0 -0 -0 -0 -0 -0
-0 -0 -0 -0 -0 -0 -0 -0 -0 -0 -0 -0 -0 -0 -0 -5 -4 -5 -20 -4 -3 -0 -6 -3 -0 -0 -0 -0 -0 -0 -0 -0 -0 -0 -0 -0 -0 -0 -0 -0 -1 -0 -1 -3 -1 -0 -0 -0 -0
Wind_Speed
nan nan nan nan nan nan nan nan nan nan nan nan nan 35 29 33 nan nan 29 21 30 28 30 37 43 45 44 36 29 23 22 18 15 12 12 13 14 16 17 18 19 20 nan nan nan nan nan nan nan
nan nan nan nan nan nan nan nan nan nan 31 31 nan nan 34 30 28 22 24 25 30 32 33 37 39 40 36 29 24 22 20 16 13 13 15 17 18 20 21 22 23 nan nan nan nan nan nan nan nan
nan nan nan nan nan nan nan nan 27 nan nan nan nan nan nan 19 15 20 28 31 33 34 37 37 36 32 27 24 21 17 14 12 12 15 17 19 22 24 26 nan nan nan nan nan nan nan nan nan nan
nan nan nan nan nan nan nan nan nan nan nan nan nan nan nan 35 31 21 29 35 38 40 36 32 29 24 20 17 14 10 11 12 15 17 19 21 24 27 nan nan nan nan nan nan nan nan nan nan nan
nan nan nan nan nan nan nan nan nan nan nan nan nan nan nan 18 19 27 31 33 36 31 29 23 21 16 14 10 9 10 13 14 17 19 21 23 27 nan nan nan nan nan nan nan nan nan nan nan nan
nan nan nan nan nan nan nan 32 nan nan nan nan nan nan 25 18 29 32 29 31 27 25 21 17 14 9 8 9 11 12 15 16 19 21 23 26 29 29 nan nan nan nan nan nan nan nan nan nan nan
nan nan nan nan nan nan nan nan nan nan nan nan 18 17 15 20 29 31 31 28 22 21 17 11 6 7 9 10 14 16 18 19 21 23 24 27 28 30 nan nan nan nan nan nan nan nan nan nan nan
nan nan nan nan nan nan nan nan nan nan nan nan 13 21 25 23 29 29 28 22 20 16 10 5 6 10 12 14 16 18 20 23 22 24 26 29 nan nan nan nan nan nan 25 26 26 25 27 26 nan
nan nan nan nan nan nan nan nan nan nan nan nan nan 21 21 26 25 23 18 13 10 6 4 nan nan nan nan nan 16 20 22 22 23 25 26 nan nan nan nan nan nan 26 26 29 28 27 nan nan nan
nan nan nan nan nan nan nan nan nan 13 nan nan nan 18 24 19 18 15 10 nan nan nan nan nan nan nan nan nan nan nan nan nan nan nan nan nan nan nan nan nan nan nan nan nan nan nan nan nan nan
nan nan nan nan nan nan nan nan nan 20 nan nan nan 13 14 12 8 nan nan nan nan nan nan nan nan nan nan nan nan nan nan nan 24 24 28 30 29 29 nan nan nan nan nan nan nan nan nan nan nan
nan nan nan nan nan nan nan nan 10 13 nan nan 14 16 nan nan nan nan nan nan nan nan nan nan nan nan nan nan nan nan 26 28 27 28 30 29 32 nan nan nan nan nan nan nan nan nan nan nan nan
nan nan nan nan nan nan nan nan nan nan nan nan 12 nan nan nan nan nan nan nan nan 10 10 nan nan nan nan nan nan nan 16 22 29 31 30 nan nan nan nan nan nan nan nan nan nan nan nan nan nan
nan nan nan nan nan nan nan nan nan nan nan nan nan nan nan nan nan nan nan nan nan 13 16 20 nan nan nan nan nan 17 18 22 29 34 34 nan nan nan nan nan nan nan nan nan nan nan nan nan nan
nan nan nan nan nan nan nan nan nan nan nan nan nan nan nan nan nan nan nan 10 14 15 23 28 30 29 nan nan nan 28 22 26 32 35 38 nan nan nan nan nan nan nan nan nan nan nan nan nan nan
nan nan nan nan nan nan nan nan nan nan 18 nan nan nan 12 nan 8 nan nan 7 14 22 29 31 28 nan nan nan nan 28 26 38 38 41 50 nan nan nan nan nan nan nan nan nan nan nan nan nan nan
nan nan nan nan nan nan nan nan nan 10 15 nan 16 16 14 10 12 13 12 7 18 28 32 33 nan nan nan nan nan nan nan 37 nan nan nan nan nan nan nan nan nan nan nan nan nan nan nan nan nan
nan nan nan nan nan nan nan nan nan nan 14 12 14 14 15 14 nan 13 16 16 21 26 30 31 nan nan 37 nan nan nan nan nan nan nan nan nan nan nan nan nan nan nan nan nan nan nan nan nan nan
nan nan nan nan nan nan nan nan nan nan 14 14 14 17 18 17 13 15 19 23 30 27 33 32 30 32 nan nan nan nan nan nan nan nan nan nan nan nan nan nan nan nan nan nan nan nan nan nan nan
nan nan nan nan nan nan nan nan nan nan nan nan nan 18 18 20 19 20 23 26 28 27 31 32 nan nan nan nan nan nan nan nan nan nan nan nan nan nan nan nan nan nan nan nan nan nan nan nan nan
nan nan nan nan nan nan nan nan nan nan nan nan nan nan 21 25 23 24 26 28 29 nan nan nan nan nan nan nan nan nan nan nan nan nan nan nan nan nan nan nan nan nan nan nan nan nan nan nan nan
nan nan nan nan nan nan nan nan nan nan nan nan nan nan nan nan nan nan nan nan nan nan nan nan nan nan nan nan nan nan nan nan nan nan nan nan nan nan nan nan nan nan nan nan nan nan nan nan nan
nan nan nan nan nan nan nan nan nan nan nan nan nan nan nan nan nan nan nan nan nan nan nan nan nan nan nan nan nan nan nan nan nan nan nan nan nan nan nan nan nan nan nan nan nan nan nan nan nan
nan nan nan nan nan nan nan nan nan nan nan nan nan nan nan nan nan nan nan nan nan nan nan nan nan nan nan nan nan nan nan nan nan nan nan nan nan nan nan nan nan nan nan nan nan nan nan nan nan
nan nan nan nan nan nan nan nan nan nan nan nan nan nan nan nan nan nan nan nan nan nan nan nan nan nan nan nan nan nan nan nan nan nan nan nan nan nan nan nan nan nan nan nan nan nan nan nan nan
nan nan nan nan nan nan nan nan nan nan nan nan nan nan nan nan nan nan nan nan nan nan nan nan nan nan nan nan nan nan nan nan nan nan nan nan nan nan nan nan nan nan nan nan nan nan nan nan nan
nan nan nan nan nan nan nan nan nan nan nan nan nan nan nan nan nan nan nan nan nan nan nan nan nan nan nan nan nan nan nan nan nan nan nan nan nan nan nan nan nan nan nan nan nan nan nan nan nan
nan nan nan nan nan nan nan nan nan nan nan nan nan nan nan nan nan nan nan nan nan nan nan nan nan nan nan nan nan nan nan nan nan nan nan nan nan nan nan nan nan nan nan nan nan nan nan nan nan
nan nan nan nan nan nan nan nan nan nan nan nan nan nan nan nan nan nan nan nan nan nan nan nan nan nan nan nan nan nan nan nan nan nan nan nan nan nan nan nan nan nan nan nan nan nan nan nan nan
nan nan nan nan nan nan nan nan nan nan nan nan nan nan nan nan nan nan nan nan nan nan nan nan nan nan nan nan nan nan nan nan nan nan nan nan nan nan nan nan nan nan nan nan nan nan nan nan nan
Wind_Direction
nan nan nan nan nan nan nan nan nan nan nan nan nan 246 250 238 nan nan 254 253 278 283 297 304 303 302 299 299 296 294 293 288 278 274 273 278 281 287 284 285 288 283 nan nan nan nan nan nan nan
nan nan nan nan nan nan nan nan nan nan 239 247 nan nan 233 230 199 241 266 285 282 294 296 306 306 299 298 296 292 287 288 285 280 275 276 282 286 282 281 277 274 nan nan nan nan nan nan nan nan
nan nan nan nan nan nan nan nan 226 nan nan nan nan nan nan 238 265 265 288 296 297 299 301 309 300 295 293 290 290 286 280 278 276 275 278 282 284 284 279 nan nan nan nan nan nan nan nan nan nan
nan nan nan nan nan nan nan nan nan nan nan nan nan nan nan 248 268 284 299 303 298 299 300 299 294 288 290 287 282 281 276 269 270 275 281 282 281 280 nan nan nan nan nan nan nan nan nan nan nan
nan nan nan nan nan nan nan nan nan nan nan nan nan nan nan 213 269 297 304 304 302 299 295 290 283 279 283 285 290 277 269 271 276 282 284 289 288 nan nan nan nan nan nan nan nan nan nan nan nan
nan nan nan nan nan nan nan 243 nan nan nan nan nan nan 283 283 313 309 305 302 301 297 290 278 274 277 275 278 276 276 278 282 286 290 294 293 290 291 nan nan nan nan nan nan nan nan nan nan nan
nan nan nan nan nan nan nan nan nan nan nan nan 283 297 299 309 308 306 304 299 290 286 274 263 245 254 273 276 276 279 285 289 292 294 293 289 290 291 nan nan nan nan nan nan nan nan nan nan nan
nan nan nan nan nan nan nan nan nan nan nan nan 323 316 316 322 308 296 299 278 270 262 256 238 235 241 252 262 280 288 292 291 296 296 296 299 nan nan nan nan nan nan 285 282 279 278 278 277 nan
nan nan nan nan nan nan nan nan nan nan nan nan nan 304 308 307 298 292 284 263 247 216 181 nan nan nan nan nan 291 295 298 300 302 303 305 nan nan nan nan nan nan 286 287 286 283 281 nan nan nan
nan nan nan nan nan nan nan nan nan 273 nan nan nan 261 288 293 296 302 319 nan nan nan nan nan nan nan nan nan nan nan nan nan nan nan nan nan nan nan nan nan nan nan nan nan nan nan nan nan nan
nan nan nan nan nan nan nan nan nan 345 nan nan nan 281 286 291 278 nan nan nan nan nan nan nan nan nan nan nan nan nan nan nan 288 298 307 307 304 301 nan nan nan nan nan nan nan nan nan nan nan
nan nan nan nan nan nan nan nan 358 334 nan nan 311 292 nan nan nan nan nan nan nan nan nan nan nan nan nan nan nan nan 292 290 297 305 315 307 302 nan nan nan nan nan nan nan nan nan nan nan nan
nan nan nan nan nan nan nan nan nan nan nan nan 292 nan nan nan nan nan nan nan nan 325 321 nan nan nan nan nan nan nan 285 306 307 309 304 nan nan nan nan nan nan nan nan nan nan nan nan nan nan
nan nan nan nan nan nan nan nan nan nan nan nan nan nan nan nan nan nan nan nan nan 330 307 290 nan nan nan nan nan 269 280 292 296 291 295 nan nan nan nan nan nan nan nan nan nan nan nan nan nan
nan nan nan nan nan nan nan nan nan nan nan nan nan nan nan nan nan nan nan 333 321 290 275 274 275 273 nan nan nan 257 261 286 295 298 299 nan nan nan nan nan nan nan nan nan nan nan nan nan nan
nan nan nan nan nan nan nan nan nan nan 288 nan nan nan 248 nan 207 nan nan 292 285 279 278 276 281 nan nan nan nan 298 286 312 299 302 305 nan nan nan nan nan nan nan nan nan nan nan nan nan nan
nan nan nan nan nan nan nan nan nan 234 261 nan 261 253 252 249 228 216 205 258 285 283 284 279 nan nan nan nan nan nan nan 300 nan nan nan nan nan nan nan nan nan nan nan nan nan nan nan nan nan
nan nan nan nan nan nan nan nan nan nan 269 271 268 264 264 251 nan 239 250 269 281 290 289 292 nan nan 292 nan nan nan nan nan nan nan nan nan nan nan nan nan nan nan nan nan nan nan nan nan nan
nan nan nan nan nan nan nan nan nan nan 251 253 251 273 276 271 273 277 282 294 290 294 291 294 287 286 nan nan nan nan nan nan nan nan nan nan nan nan nan nan nan nan nan nan nan nan nan nan nan
nan nan nan nan nan nan nan nan nan nan nan nan nan 281 288 289 283 284 289 286 286 292 294 291 nan nan nan nan nan nan nan nan nan nan nan nan nan nan nan nan nan nan nan nan nan nan nan nan nan
nan nan nan nan nan nan nan nan nan nan nan nan nan nan 294 300 295 297 295 295 294 nan nan nan nan nan nan nan nan nan nan nan nan nan nan nan nan nan nan nan nan nan nan nan nan nan nan nan nan
nan nan nan nan nan nan nan nan nan nan nan nan nan nan nan nan nan nan nan nan nan nan nan nan nan nan nan nan nan nan nan nan nan nan nan nan nan nan nan nan nan nan nan nan nan nan nan nan nan
nan nan nan nan nan nan nan nan nan nan nan nan nan nan nan nan nan nan nan nan nan nan nan nan nan nan nan nan nan nan nan nan nan nan nan nan nan nan nan nan nan nan nan nan nan nan nan nan nan
nan nan nan nan nan nan nan nan nan nan nan nan nan nan nan nan nan nan nan nan nan nan nan nan nan nan nan nan nan nan nan nan nan nan nan nan nan nan nan nan nan nan nan nan nan nan nan nan nan
nan nan nan nan nan nan nan nan nan nan nan nan nan nan nan nan nan nan nan nan nan nan nan nan nan nan nan nan nan nan nan nan nan nan nan nan nan nan nan nan nan nan nan nan nan nan nan nan nan
nan nan nan nan nan nan nan nan nan nan nan nan nan nan nan nan nan nan nan nan nan nan nan nan nan nan nan nan nan nan nan nan nan nan nan nan nan nan nan nan nan nan nan nan nan nan nan nan nan
nan nan nan nan nan nan nan nan nan nan nan nan nan nan nan nan nan nan nan nan nan nan nan nan nan nan nan nan nan nan nan nan nan nan nan nan nan nan nan nan nan nan nan nan nan nan nan nan nan
nan nan nan nan nan nan nan nan nan nan nan nan nan nan nan nan nan nan nan nan nan nan nan nan nan nan nan nan nan nan nan nan nan nan nan nan nan nan nan nan nan nan nan nan nan nan nan nan nan
nan nan nan nan nan nan nan nan nan nan nan nan nan nan nan nan nan nan nan nan nan nan nan nan nan nan nan nan nan nan nan nan nan nan nan nan nan nan nan nan nan nan nan nan nan nan nan nan nan
nan nan nan nan nan nan nan nan nan nan nan nan nan nan nan nan nan nan nan nan nan nan nan nan nan nan nan nan nan nan nan nan nan nan nan nan nan nan nan nan nan nan nan nan nan nan nan nan nan